星链-34886(STARLINK-34886)

导读

STARLINK-34886是美国于2025年9月21日发射的星链卫星,隶属于SpaceX星链星座项目。星链项目旨在构建全球卫星互联网星座,为全球偏远、欠发达地区及各类移动场景提供低延迟、高速率的宽带互联网接入服务,该卫星入轨后将和其他星链卫星组网,进一步完善星座覆盖能力,服务全球用户。

基本信息
目录编号:
65683
目录名称:
STARLINK-34886
国际标识:
2025-212H
轨道中心:
EARTH
卫星名称:
星链-34886
卫星全名:
星链-34886(STARLINK-34886)
卫星状态:
在轨 (已飞行265 天)
发射日期:
2025-09-21 UTC
国别 :
美国 (US)
星等 :
--
轨道信息
数据来源 国际轨道数据
星历时间: 2026-06-12T21:25:15+0800
1天前
查看轨道信息
半长轴: 6848.77km
偏心率: 0.000128
轨道倾角: 53.160°
近地点辐角 79.298°
升交点赤经 264.652°
平近点角 280.817°
近地点: 469.756km
远地点: 471.51km
周期: 94.011分钟
每日圈数: 15.317361
详细信息
固有亮度:
5
最大亮度:
2.5
卫星平台:
Starlink V1.0
覆盖范围:
全球
运营商:
太空探索技术公司
运营商所在国:
美国
制造商(研发单位):
太空探索技术公司
制造商所在国:
美国
使用方式:
暂无
卫星简介
Starlink 计划是 SpaceX 推出的全球卫星互联网项目,通过发射低轨道卫星,为全球尤其是偏远地区提供高速、低延迟的互联网服务。自 2019 年起,Starlink 已部署数千颗卫星,旨在缩小全球数字鸿沟,推动互联网普及。该项目还为军事、航空等行业提供通信支持,带来广泛经济效益。
2D轨道图
3D轨道图
轨道高度分析图
轨道倾角分析图
轨道综合分析图
查看轨道综合分析图